Location: Fabas
(43.1104°N, 1.1050°E)
Time: 04:47:35
(UTC+00:00)

Daily predictions for brighter satellites

Satellite Brightness Start Highest point End
(mag) Time Altitude Azimuth Time Altitude Azimuth Time Altitude Azimuth
COSMOS 2455 4.1 00:04:46 24° ESE 00:05:32 25° ESE 00:10:19 10° NE
MetOp-A 3.4 00:06:33 71° NW 00:06:33 71° NW 00:10:01 10° NNW
Nadezhda 1 Rocket 4.1 00:04:29 46° SW 00:06:17 67° W 00:12:29 10° N
Cosmos 2082 Rocket 2.5 00:03:01 10° NW 00:08:24 48° WSW 00:09:02 46° SW
Cosmos 2278 Rocket 3.9 00:06:22 12° WSW 00:10:29 26° NW 00:15:13 10° N
NOSS 3-1 (A) 4.4 00:14:36 21° ESE 00:14:36 21° ESE 00:18:07 10° ENE
Cosmos 1110 Rocket 4.4 00:11:19 10° NNW 00:16:13 44° WSW 00:16:32 44° WSW
SL-8 R/B 3.7 00:15:45 45° W 00:17:11 76° NNW 00:21:57 10° ENE
CZ-4C R/B 4.4 00:14:05 10° NNE 00:16:54 31° ENE 00:16:54 31° ENE
Cosmos 1356 Rocket 4.4 00:14:15 10° N 00:17:58 35° ENE 00:18:25 34° E
Cosmos 1452 Rocket 3.5 00:15:01 10° NNW 00:20:14 66° WSW 00:20:55 59° SSW
USA 308 4.2 00:23:07 25° ENE 00:23:07 25° ENE 00:25:12 10° ENE
NOSS 3-1 (C) 2.6 00:22:32 70° SSE 00:22:55 75° ESE 00:28:14 10° NE
Cosmos 1908 Rocket 4.4 00:20:59 10° N 00:25:11 40° ENE 00:26:03 36° ESE
CZ-3B R/B 3.8 00:28:33 38° SSW 00:31:30 79° SE 00:56:55 10° NE
Cosmos 972 Rocket 4.0 00:28:29 10° NNW 00:34:04 68° WSW 00:34:56 57° SSW
COSMOS 2406 3.2 00:30:21 10° NNW 00:35:58 63° WSW 00:37:01 53° SSW
Cosmos 2341 Rocket 3.9 00:30:04 10° N 00:36:21 89° WSW 00:38:22 46° S
SL-8 Rocket 3.9 00:33:54 10° N 00:40:04 81° W 00:41:58 47° S
SL-4 R/B 2.9 00:42:23 31° ENE 00:42:23 31° ENE 00:44:10 10° ENE
Cosmos 2297 3.6 00:45:21 51° SSW 00:46:53 85° ESE 00:52:39 10° NNE
Cosmos 2369 Rocket 2.2 00:50:46 47° SW 00:52:22 76° WNW 00:57:59 10° NNE
Lacrosse 4 Rocket 2.8 00:49:58 10° NNW 00:53:51 35° NE 00:56:30 17° ESE
DELTA 2 DEB (DPAF) 3.7 00:50:30 10° NNE 00:53:47 66° ENE 00:53:47 66° ENE
CZ-2C R/B 3.4 00:55:17 33° WSW 00:55:48 34° W 01:00:32 10° NNW
USA 290 3.0 00:54:51 10° NNW 00:57:15 48° N 00:57:15 48° N
Cosmos 1959 Rocket 4.4 00:52:00 10° N 00:58:14 75° W 01:00:25 43° S
Cosmos 2228 Rocket 3.8 00:59:27 38° W 00:59:56 39° WNW 01:04:04 10° N
ADEOS Rocket 3.9 00:57:23 10° NNE 01:03:06 37° E 01:05:49 24° SE
USA 276 4.0 01:09:04 21° NW 01:09:50 24° N 01:12:20 10° NE
In-Cosmos 22 Rocket 4.3 01:09:23 40° SSE 01:11:17 67° E 01:16:48 10° NNE
Cosmos 1818 3.5 01:09:43 48° SSW 01:11:19 87° ESE 01:16:48 10° NE
ARIANE 6 FM1 Upper Stage 3.8 01:16:12 28° W 01:17:35 37° NW 01:21:25 10° NNE
Cosmos 1300 Rocket 3.4 01:13:59 10° N 01:18:20 84° W 01:19:07 59° S
Cosmos 1315 Rocket 4.3 01:16:36 10° NW 01:19:10 23° WNW 01:19:10 23° WNW
Cosmos 1703 Rocket 4.2 01:25:41 38° WSW 01:26:24 41° WNW 01:30:33 10° N
Cosmos 2181 Rocket 4.4 01:25:44 34° SW 01:28:14 52° WNW 01:34:28 10° N
ATLAS 5 CENTAUR R/B 3.2 01:30:58 12° WNW 01:31:56 14° NW 01:33:40 10° N
Nadezhda 3 Rocket 3.9 01:29:57 35° S 01:32:45 86° W 01:39:02 10° N
Cosmos 1934 Rocket 4.5 01:27:04 10° N 01:33:17 59° ENE 01:38:14 17° SSE
Cosmos 1339 Rocket 4.4 01:32:02 32° S 01:35:01 78° E 01:41:06 10° N
Meteor 1-21 Rocket 4.4 01:32:42 32° S 01:35:31 73° E 01:41:26 10° NNE
Cosmos 407 Rocket 4.3 01:37:55 26° SSE 01:40:14 42° ESE 01:45:02 10° NNE
PSLV R/B 4.2 01:37:43 10° N 01:41:26 47° WNW 01:42:06 42° WSW
SJ 16-02 2.6 01:39:46 23° SE 01:41:27 31° E 01:45:12 10° NE
Cosmos 921 Rocket 3.0 01:41:10 43° S 01:42:22 68° ESE 01:46:33 10° NNE
USA 308 3.8 01:41:52 24° WNW 01:43:31 37° NNW 01:47:28 10° NE
Nimbus 7 Rocket 4.3 01:38:47 10° NNE 01:44:43 87° WNW 01:47:36 32° SSW
ACS3 Solar Sail 3.2 01:40:56 10° NNW 01:45:19 24° WNW 01:48:09 16° WSW
COSMOS 2455 3.2 01:47:52 27° WSW 01:51:02 57° NW 01:56:58 10° NNE
IDEFIX/ARIANE 42P 2.5 01:49:27 10° NNE 01:54:43 81° WNW 01:57:12 32° SSW
Cosmos 540 Rocket 4.2 01:50:31 10° N 01:55:29 50° ENE 02:00:24 10° SE
Iridium 82 4.2 02:00:15 50° WNW 02:00:15 50° WNW 02:02:47 10° N
SL-19 R/B 4.3 01:59:03 27° SE 02:00:39 60° ENE 02:03:53 10° N
ADEOS II 4.2 01:58:26 10° NE 02:02:12 20° E 02:05:57 10° SE
Meteor 1-11 4.3 02:00:23 25° S 02:03:41 78° E 02:09:21 10° NNE
NOSS 3-1 (A) 3.6 02:01:56 24° WSW 02:04:29 48° NW 02:09:52 10° NNE
Resurs 1-4 Rocket 3.3 02:07:46 10° NNE 02:12:37 37° E 02:17:13 11° SSE
Cosmos 1140 Rocket 4.1 02:11:29 25° WSW 02:14:00 44° WNW 02:18:53 10° N
Cosmos 1656 3.8 02:11:00 24° S 02:14:16 67° ESE 02:19:45 10° NNE
Cosmos 1346 Rocket 3.0 02:14:57 34° WSW 02:15:59 45° WNW 02:19:30 10° N
H-2A R/B 3.4 02:13:22 10° NNE 02:18:08 34° E 02:22:44 10° SSE
SL-4 R/B 3.6 02:16:01 10° WNW 02:18:35 22° NNW 02:21:05 10° NE
Cosmos 1605 Rocket 4.1 02:14:42 10° N 02:21:02 77° E 02:27:12 10° SSE
COSMOS 2441 4.4 02:17:33 10° NNE 02:22:26 85° ESE 02:25:39 22° SSW
Cosmos 371 Rocket 3.4 02:23:01 26° SW 02:25:40 66° WNW 02:30:30 10° NNE
Cosmos 1763 Rocket 3.3 02:22:14 10° NNW 02:27:18 76° WSW 02:32:19 10° SSE
Cosmos 304 Rocket 4.1 02:25:25 25° SW 02:27:59 54° WNW 02:32:40 10° NNE
Cosmos 1809 Rocket 4.4 02:23:30 19° S 02:28:06 85° W 02:34:20 10° N
Lacrosse 4 Rocket 2.6 02:28:06 10° NW 02:31:25 23° WSW 02:31:50 23° WSW
Cosmos 2297 Rocket 3.2 02:29:49 10° NNW 02:35:19 50° ENE 02:40:48 10° SE
Cosmos 1535 Rocket 4.5 02:30:57 10° N 02:37:15 76° W 02:43:25 10° S
Cosmos 2369 Rocket 4.4 02:34:28 10° WNW 02:37:22 14° NW 02:40:17 10° NNW
Cosmos 1025 Rocket 3.0 02:34:41 20° S 02:37:39 85° W 02:42:02 10° N
OPS 8737 4.2 02:35:08 10° NW 02:38:15 80° NE 02:41:24 10° SE
MOZ.5/SAFIR/RUBIN 5/SL-8 3.7 02:35:42 11° S 02:40:06 76° WSW 02:44:44 10° NNW
FENGYUN 3A 4.3 02:38:02 10° N 02:43:02 41° WNW 02:46:39 18° SW
Lacrosse 5 rocket 4.2 02:43:29 10° N 02:45:17 14° NNE 02:47:04 10° NE
CZ-2D R/B 2.5 02:40:01 10° NNE 02:45:27 66° ESE 02:50:44 10° S
ADEOS Rocket 3.9 02:42:55 10° N 02:48:32 35° WNW 02:52:44 15° WSW
Cosmos 1980 Rocket 4.5 02:45:20 10° SE 02:49:06 18° E 02:52:52 10° ENE
DMSP B5D2-2 4.1 02:45:52 10° S 02:51:04 68° WSW 02:56:20 10° NNW
ATLAS 3B R/B 3.9 02:45:55 10° S 02:52:51 41° ESE 03:00:03 10° NE
NOSS 2-2 (C) 3.6 02:50:51 10° NW 02:54:46 71° SW 03:00:14 10° SSE
ALOS 2.3 02:50:16 10° NNE 02:54:51 82° ESE 02:59:09 11° S
SL-24 DEB 4.3 02:54:34 14° SSW 02:58:13 51° W 03:02:32 10° NNW
Cosmos 468 Rocket 3.9 02:53:08 10° NNW 02:58:16 83° WSW 03:03:22 10° SSE
Cosmos 2360 4.4 02:54:41 16° SW 02:59:13 65° WNW 03:04:55 10° NNE
ARGOS 4.4 02:54:45 10° NNE 02:59:45 38° E 03:04:43 10° SSE
Cosmos 1455 Rocket 3.6 03:01:38 10° N 03:05:55 61° E 03:10:11 10° SSE
Cosmos 1153 Rocket 4.5 03:00:56 10° N 03:07:10 83° W 03:13:17 10° S
Cosmos 405 Rocket 3.7 03:06:51 15° WSW 03:08:19 21° WNW 03:10:39 10° NNW
Cosmos 2292 Rocket 2.6 03:06:53 13° SSW 03:09:24 74° W 03:12:39 10° N
Cosmos 2084 Rocket 3.4 03:07:47 13° SSW 03:11:13 68° SE 03:15:15 10° NE
Okean 2 Rocket 3.3 03:08:58 10° NNW 03:13:11 49° W 03:17:22 10° SSW
Cosmos 374 Rocket 4.3 03:09:55 14° SW 03:13:20 76° NW 03:17:06 10° NE
Envisat 3.4 03:08:52 10° N 03:13:43 48° WNW 03:18:23 11° SW
Cosmos 546 4.5 03:11:17 10° WNW 03:15:02 65° SW 03:18:46 10° SE
SeaSat 1 2.4 03:10:27 10° SSE 03:15:20 77° WSW 03:20:15 10° NNW
SJ 16-02 2.8 03:16:15 11° WSW 03:19:31 24° WNW 03:22:58 10° N
Cosmos 1727 Rocket 4.0 03:13:34 10° SSW 03:19:48 76° W 03:26:02 10° N
CENTAUR R/B 3.6 03:11:32 10° NW 03:20:00 79° NE 03:29:33 10° SE
USA 229 DEB 3.6 03:18:21 10° SSW 03:24:12 79° ESE 03:30:48 10° NE
USA 229 3.6 03:18:23 10° SSW 03:24:14 78° SE 03:30:50 10° NE
BREEZE-M DEB (TANK) 4.2 03:14:40 10° W 03:24:19 43° N 03:27:31 10° ENE
Cosmos 292 Rocket 4.0 03:22:58 10° SSW 03:27:42 73° ESE 03:32:27 10° NNE
Cosmos 968 Rocket 3.9 03:22:46 10° S 03:27:55 64° ESE 03:33:06 10° NNE
Cosmos 1862 3.1 03:26:07 10° S 03:29:38 82° E 03:33:11 10° N
Cosmos 2221 Rocket 4.4 03:27:59 10° SW 03:32:09 36° WNW 03:36:21 10° N
SL-16 R/B 3.3 03:26:14 10° SE 03:32:16 58° ENE 03:38:19 10° N
Cosmos 1459 Rocket 4.1 03:26:59 10° N 03:33:12 89° E 03:39:28 10° S
Cosmos 841 Rocket 3.5 03:28:26 10° NNW 03:33:40 83° WSW 03:38:49 10° SSE
Cosmos 2173 Rocket 4.0 03:27:54 10° N 03:34:15 84° W 03:40:28 10° S
METEOR-M 4.2 03:29:24 10° NNE 03:34:46 81° WNW 03:40:06 10° SSW
Cosmos 1954 Rocket 4.5 03:34:44 10° SW 03:39:41 46° WNW 03:44:40 10° N
NOSS 2-2 (E) 3.6 03:37:00 10° NW 03:40:54 85° SW 03:46:19 10° SSE
ADEOS II 2.4 03:36:58 10° N 03:42:03 54° WNW 03:47:07 10° SSW
Cosmos 2100 Rocket 4.0 03:36:28 10° NNW 03:42:42 70° W 03:48:50 10° S
SL-8 R/B 4.3 03:38:00 10° WNW 03:42:43 60° NNE 03:47:26 10° E
Cosmos 2016 Rocket 4.4 03:39:31 10° N 03:45:44 71° E 03:51:59 10° SSE
Cosmos 1697 Rocket 2.8 03:41:55 10° SSW 03:47:31 67° WNW 03:53:07 10° NNE
